WetterOnline ( https://www.wetteronline.de )

Wetter aktuell Irrel

Aktuelles Wetter: Trier/Petrisberg (273m)

6-stündlich | Neueste Meldungen
Ortszeit Temperatur Wetter
Do, 30.05. 2:00 13.1° C Regen
Mi, 29.05. 20:00 14.6° C bewölkt
Mi, 29.05. 14:00 16.1° C bedeckt
Mi, 29.05. 8:00 14.0° C bewölkt
Mi, 29.05. 2:00 13.6° C bedeckt
Di, 28.05. 20:00 15.7° C bedeckt
Di, 28.05. 14:00 17.0° C bewölkt
Di, 28.05. 8:00 10.1° C bewölkt
Ortszeit Temperatur Wetter
Do, 30.05. 5:00 11.6° C Regen
Do, 30.05. 4:30 11.5° C Regen
Do, 30.05. 4:20 11.5° C Regen
Do, 30.05. 4:10 11.7° C leichter Regen
Do, 30.05. 4:00 12.0° C leichter Regen
Do, 30.05. 3:50 12.0° C leichter Regen
Do, 30.05. 3:30 12.0° C leichter Regen
Do, 30.05. 3:00 12.1° C bewölkt
Do, 30.05. 2:30 12.3° C Sprühregen
Do, 30.05. 2:00 13.1° C Regen
Ortszeit Relative Feuchte Sichtweite
Do, 30.05. 2:00 97% 2.3 km
Mi, 29.05. 20:00 87% 65 km
Mi, 29.05. 14:00 79% 50 km
Mi, 29.05. 8:00 85% 45 km
Mi, 29.05. 2:00 91% 50 km
Di, 28.05. 20:00 67% 55 km
Di, 28.05. 14:00 51% >70 km
Di, 28.05. 8:00 87% 45 km
Ortszeit Relative Feuchte Sichtweite
Do, 30.05. 5:00 96% 60 km
Do, 30.05. 4:30 95% 7 km
Do, 30.05. 4:20 95% -
Do, 30.05. 4:10 95% -
Do, 30.05. 4:00 94% 35 km
Do, 30.05. 3:50 94% -
Do, 30.05. 3:30 95% 45 km
Do, 30.05. 3:00 94% 65 km
Do, 30.05. 2:30 95% 45 km
Do, 30.05. 2:00 97% 2.3 km
Ortszeit Niederschlagsmenge Niederschlagsart
Do, 30.05. 2:00 12 l/m2 in 6 Std. Regen
Mi, 29.05. 20:00 0.9 l/m2 in 12 Std. Regen
Mi, 29.05. 14:00 0.8 l/m2 in 6 Std. Regen
Mi, 29.05. 8:00 0.3 l/m2 in 12 Std. Regen
Mi, 29.05. 2:00 0.3 l/m2 in 6 Std. Regen
Di, 28.05. 20:00 0.1 l/m2 in 12 Std. Regen
Di, 28.05. 14:00 0.0 l/m2 in 6 Std. -
Di, 28.05. 8:00 0.1 l/m2 in 12 Std. -
Ortszeit Niederschlagsmenge Niederschlagsart
Do, 30.05. 5:00 1.9 l/m2 in 1 Std. Regen
Do, 30.05. 4:30 1.0 l/m2 in 30 Min -
Do, 30.05. 4:20 keine Meldung -
Do, 30.05. 4:10 keine Meldung -
Do, 30.05. 4:00 0.3 l/m2 in 1 Std. Regen
Do, 30.05. 3:50 keine Meldung -
Do, 30.05. 3:30 <0.05 l/m2 in 30 Min -
Do, 30.05. 3:00 1.0 l/m2 in 1 Std. Regen
Do, 30.05. 2:30 1.0 l/m2 in 30 Min -
Do, 30.05. 2:00 5.2 l/m2 in 1 Std. Regen
Ortszeit Stärke Spitze Richtung
km/h Bft. km/h Grad Sektor
Do, 30.05. 2:00 9 2 35 290° W
Mi, 29.05. 20:00 17 3 48 220° SW
Mi, 29.05. 14:00 22 4 43 210° SW
Mi, 29.05. 8:00 24 4 33 210° SW
Mi, 29.05. 2:00 22 4 32 220° SW
Di, 28.05. 20:00 15 3 39 230° SW
Di, 28.05. 14:00 22 4 36 210° SW
Di, 28.05. 8:00 7 2 22 210° SW
Ortszeit Stärke Spitze Richtung
km/h Bft. km/h Grad Sektor
Do, 30.05. 5:00 7 2 18 360° N
Do, 30.05. 4:30 11 2 18 350° N
Do, 30.05. 4:20 11 2 - 350° N
Do, 30.05. 4:10 11 2 - 20° N
Do, 30.05. 4:00 6 1 13 20° N
Do, 30.05. 3:50 6 1 - 20° N
Do, 30.05. 3:30 4 1 14 180° S
Do, 30.05. 3:00 7 2 22 100° O
Do, 30.05. 2:30 7 2 22 50° NO
Do, 30.05. 2:00 9 2 19 290° W
Ortszeit Untergrenze Bedeckung Gattung
total tief tief mittel hoch
Do, 30.05. 2:00 <30 m 7/8 0/8 - - -
Mi, 29.05. 20:00 330 m 7/8 7/8 - - -
Mi, 29.05. 14:00 480 m 8/8 8/8 - - -
Mi, 29.05. 8:00 450 m 7/8 7/8 - - -
Mi, 29.05. 2:00 270 m 8/8 8/8 - - -
Di, 28.05. 20:00 1290 m 8/8 8/8 - - -
Di, 28.05. 14:00 1800 m 7/8 7/8 - - -
Di, 28.05. 8:00 1320 m 7/8 7/8 - - -
Ortszeit Bedeckungsgrad in Achtel und Wolkenuntergrenze
Do, 30.05. 5:00 7(960m) 7(1800m) 8(2700m)
Do, 30.05. 4:30 1(60m) 8(1800m)
Do, 30.05. 4:20 1(60m) 2(1080m) 8(1800m)
Do, 30.05. 4:10 8
Do, 30.05. 4:00 1(30m) 8(2400m) 8(3900m)
Do, 30.05. 3:50 1(30m) 8(2400m) 8(3900m)
Do, 30.05. 3:30 2(1500m) 7(2400m) 7(5400m)
Do, 30.05. 3:00 2(1440m) 7(2400m) 8(6600m)
Do, 30.05. 2:30 1(300m) 8(3000m) 8(4500m)
Do, 30.05. 2:00 5(<30m) 7(270m)
Ortszeit Luftdruck NN (hPa) Tendenz (hPa in 3 Std.)
Do, 30.05. 2:00 1007 - 1,9
Mi, 29.05. 20:00 1011 - 0,8
Mi, 29.05. 14:00 1013 - 0,9
Mi, 29.05. 8:00 1014 - 0,8
Mi, 29.05. 2:00 1017 - 1,0
Di, 28.05. 20:00 1018 - 0,1
Di, 28.05. 14:00 1019 - 1,1
Di, 28.05. 8:00 1021 + 0,7
Ortszeit Luftdruck NN (hPa) Tendenz (hPa in 3 Std.)
Do, 30.05. 5:00 1006 - 1,4
Do, 30.05. 4:30 1007 - 1,4
Do, 30.05. 4:20 1007 keine Meldung
Do, 30.05. 4:10 1006 keine Meldung
Do, 30.05. 4:00 1007 - 1,3
Do, 30.05. 3:50 1007 keine Meldung
Do, 30.05. 3:30 1007 - 1,6
Do, 30.05. 3:00 1007 - 1,8
Do, 30.05. 2:30 1007 - 1,7
Do, 30.05. 2:00 1007 - 1,9
Ortszeit Schneehöhe (cm)
Do, 30.05. 2:00 0
Mi, 29.05. 20:00 0
Mi, 29.05. 14:00 0
Mi, 29.05. 8:00 0
Mi, 29.05. 2:00 0
Di, 28.05. 20:00 0
Di, 28.05. 14:00 0
Di, 28.05. 8:00 0
Ortszeit Schneehöhe (cm)
Do, 30.05. 5:00 0
Do, 30.05. 4:30 0
Do, 30.05. 4:20 0
Do, 30.05. 4:10 -
Do, 30.05. 4:00 0
Do, 30.05. 3:50 0
Do, 30.05. 3:30 0
Do, 30.05. 3:00 0
Do, 30.05. 2:30 0
Do, 30.05. 2:00 0
Link zu dieser Seite / Seite empfehlen

Das Wetter in ...